Find Starlink 36237

NORAD ID: 68337 Int'l Des: 2026-059 Owner: SPXS Country: US Constellation: starlink operational
LEOCIRCULAR

Live Position

Loading 3D Globe...

About Starlink 36237

Description loading...

Upcoming Passes

Passes for default location (London). Set your location on the main map for personalized predictions.

Altitude History

Loading altitude history...

Two-Line Element Set

1 68337U 26059S 26139.91668981 -.02209744 00000-0 -55562-1 0 9992
2 68337 53.1593 13.4334 0001256 88.8123 21.0852 15.42684909 5941
Epoch: May 19, 2026 • Age: 9 hours

Current Status

Altitude 453.7 km
Velocity 7.64 km/s
Sub-Earth Point -31.67°S, 6.16°E
Launch Date Mar 22, 2026
Age 0.1 years
Type internet

Technical Details

Classification Payload
Mass 575.00 kg
Dry Mass 530.00 kg
Total Mass 575.00 kg
Length 0.30 m
Diameter 4.10 m
Span 29.00 m
Shape Box + pan
Manufacturer SPXS
Bus Type Starlink V2MO
Phase Status In Orbit
Owner/State SPXS/US

Most Searched